{"data":{"norad_id":62836,"epoch":"2026-09-21T13:12:11.461824Z","epoch_age_seconds":77784,"freshness":"FRESH","line1":"1 62836U 25019H   26264.55013266  .00145695  00000+0  11158-2 0  9997","line2":"2 62836  43.0003 205.4772 0000808 303.9395  56.1395 15.70910709 94687","mean_motion":15.70910709,"eccentricity":8.08e-5,"inclination_deg":43.0003,"raan_deg":205.4772,"arg_perigee_deg":303.9395,"mean_anomaly_deg":56.1395,"bstar":0.0011158,"rev_number":9468,"period_min":91.666572246914,"perigee_km":355.74882765231,"apogee_km":356.8371115354,"semimajor_km":6734.4299695939,"source":"CELESTRAK","updated_at":"2026-09-22T09:00:49.672412Z"}}